Latest Weather Observations for Essendon Airport

IDV60901

Issued at 12:55 pm EDT Wednesday 22 October 2014 (issued every 10 minutes, with the page automatically refreshed every 10 minutes)

About weather observations | Map of Melbourne area stations | Latest observations for Melbourne area | Other Formats
Station Details ID: 086038 Name: ESSENDON AIRPORT Lat: -37.73 Lon: 144.91 Height: 78.4 m
Data from the previous 72 hours. | See also: Recent months at Essendon Airport
Date/Time
EDT
Tmp

°C
App
Tmp
°C
Dew
Point
°C
Rel
Hum
%
Delta-T

°C
Wind Press
QNH
hPa
Press
MSL
hPa
Rain
since
9 am
mm
Dir
 
Spd
km/h
Gust
km/h
Spd
kts
Gust
kts
22/12:30pm 27.1 22.6 12.7 41 8.4 N 28 39 15 21 1017.7 1017.7 0.0
22/12:00pm 26.4 22.0 12.8 43 7.9 N 28 39 15 21 1018.1 1018.1 0.0
22/11:30am 25.7 22.5 13.2 46 7.3 N 22 35 12 19 1018.7 1018.7 0.0
22/11:00am 23.6 17.6 12.0 48 6.6 N 35 56 19 30 1019.2 1019.2 0.0
22/10:56am 23.5 17.4 11.9 48 6.6 N 35 56 19 30 1019.3 1019.3 0.0
22/10:30am 23.2 16.6 12.5 51 6.1 N 39 50 21 27 1019.1 1019.1 0.0
22/10:00am 22.2 14.9 11.6 51 5.9 N 41 61 22 33 1019.1 1019.1 0.0
22/09:30am 21.3 14.7 11.3 53 5.6 N 37 61 20 33 1019.0 1019.0 0.0
22/09:03am 20.4 13.8 11.3 56 5.0 N 37 59 20 32 1019.1 1019.1 0.0
22/09:00am 20.5 13.9 11.4 56 5.0 N 37 54 20 29 1019.2 1019.2 0.0
22/08:30am 19.4 12.3 10.9 58 4.6 N 39 59 21 32 1019.1 1019.1 0.0
22/08:00am 18.9 12.2 11.0 60 4.3 N 37 54 20 29 1019.3 1019.3 0.0
22/07:30am 18.0 11.2 10.6 62 4.0 N 37 56 20 30 1019.5 1019.5 0.0
22/07:26am 18.1 11.7 10.7 62 4.0 N 35 54 19 29 1019.4 1019.4 0.0
22/07:00am 17.6 11.1 10.5 63 3.8 N 35 50 19 27 1019.3 1019.3 0.0
22/06:55am 17.6 11.7 10.5 63 3.8 N 32 50 17 27 1019.4 1019.4 0.0
22/06:30am 17.5 11.6 10.4 63 3.8 N 32 48 17 26 1019.4 1019.4 0.0
22/06:10am 17.7 11.8 10.6 63 3.8 N 32 52 17 28 1019.4 1019.4 0.0
22/06:00am 17.7 11.8 10.6 63 3.8 N 32 48 17 26 1019.5 1019.5 0.0
22/05:37am 18.1 12.6 10.5 61 4.1 N 30 48 16 26 1019.2 1019.2 0.0
22/05:30am 17.9 12.4 10.5 62 4.0 N 30 43 16 23 1019.3 1019.3 0.0
22/05:00am 18.5 13.4 10.6 60 4.3 N 28 39 15 21 1019.2 1019.2 0.0
22/04:30am 18.8 14.1 10.6 59 4.4 N 26 35 14 19 1019.2 1019.2 0.0
22/04:00am 18.9 15.3 10.7 59 4.4 N 20 32 11 17 1019.5 1019.5 0.0
22/03:30am 18.3 15.4 10.9 62 4.0 N 17 24 9 13 1019.8 1019.8 0.0
22/03:00am 17.3 13.9 11.3 68 3.3 N 20 26 11 14 1020.2 1020.2 0.0
22/02:30am 15.2 14.6 10.4 73 2.5 NE 4 9 2 5 1020.5 1020.5 0.0
22/02:00am 15.1 14.8 10.1 72 2.6 N 2 6 1 3 1020.7 1020.7 0.0
22/01:30am 15.2 14.0 10.2 72 2.6 N 7 9 4 5 1020.9 1020.9 0.0
22/01:00am 15.2 14.1 9.8 70 2.8 NNE 6 7 3 4 1021.3 1021.3 0.0
22/12:30am 17.2 16.1 10.6 65 3.5 N 7 11 4 6 1021.7 1021.7 0.0
22/12:00am 17.5 16.1 10.9 65 3.5 N 9 13 5 7 1022.2 1022.2 0.0
 
Date/Time
EDT
Tmp

°C
App
Tmp
°C
Dew
Point
°C
Rel
Hum
%
Delta-T

°C
Wind Press
QNH
hPa
Press
MSL
hPa
Rain
since
9 am
mm
Dir
 
Spd
km/h
Gust
km/h
Spd
kts
Gust
kts
21/11:30pm 18.8 18.0 10.9 60 4.3 NNW 6 7 3 4 1022.5 1022.5 0.0
21/11:00pm 18.7 17.6 10.8 60 4.3 NNW 7 7 4 4 1022.6 1022.6 0.0
21/10:30pm 18.3 17.3 10.9 62 4.0 WNW 7 9 4 5 1022.8 1022.8 0.0
21/10:00pm 20.2 18.7 10.6 54 5.2 NW 9 13 5 7 1022.8 1022.8 0.0
21/09:30pm 21.1 21.1 12.3 57 5.0 S 4 9 2 5 1022.6 1022.6 0.0
21/09:00pm 20.4 19.2 10.2 52 5.5 N 7 11 4 6 1022.3 1022.3 0.0
21/08:30pm 21.7 19.9 10.8 50 6.0 N 11 15 6 8 1022.2 1022.2 0.0
21/08:00pm 22.5 20.7 10.9 48 6.4 N 11 15 6 8 1022.1 1022.1 0.0
21/07:30pm 23.4 21.1 10.5 44 7.1 N 13 17 7 9 1022.0 1022.0 0.0
21/07:00pm 24.8 21.9 9.5 38 8.4 N 15 20 8 11 1021.9 1021.9 0.0
21/06:30pm 25.6 22.5 9.0 35 9.1 N 15 20 8 11 1021.9 1021.9 0.0
21/06:00pm 26.5 23.5 10.6 37 8.9 N 17 26 9 14 1021.9 1021.9 0.0
21/05:30pm 26.8 24.3 10.9 37 9.0 N 15 22 8 12 1022.0 1022.0 0.0
21/05:00pm 27.0 24.0 10.7 36 9.2 NNW 17 26 9 14 1022.2 1022.2 0.0
21/04:30pm 27.2 24.8 10.0 34 9.6 N 13 22 7 12 1022.3 1022.3 0.0
21/04:00pm 26.8 23.3 10.1 35 9.3 N 19 26 10 14 1022.4 1022.4 0.0
21/03:30pm 26.6 23.4 11.1 38 8.8 N 19 32 10 17 1023.0 1023.0 0.0
21/03:00pm 27.0 24.1 12.3 40 8.5 N 19 28 10 15 1023.5 1023.5 0.0
21/02:30pm 26.1 22.9 11.8 41 8.2 N 20 30 11 16 1023.8 1023.8 0.0
21/02:00pm 25.4 21.3 11.6 42 7.8 N 24 33 13 18 1024.4 1024.4 0.0
21/01:30pm 25.7 22.4 12.9 45 7.5 N 22 32 12 17 1024.8 1024.8 0.0
21/01:00pm 24.9 21.9 12.5 46 7.1 N 20 28 11 15 1025.1 1025.1 0.0
21/12:30pm 24.1 20.3 12.4 48 6.7 NNE 24 35 13 19 1025.4 1025.4 0.0
21/12:00pm 22.9 17.6 11.3 48 6.5 N 30 41 16 22 1025.7 1025.7 0.0
21/11:30am 22.1 16.6 10.6 48 6.3 N 30 39 16 21 1026.1 1026.1 0.0
21/11:00am 20.9 15.4 10.4 51 5.7 NNE 30 43 16 23 1026.4 1026.4 0.0
21/10:30am 20.2 16.8 11.1 56 5.0 N 20 33 11 18 1026.8 1026.8 0.0
21/10:00am 17.1 14.3 10.0 63 3.7 ENE 15 20 8 11 1027.1 1027.1 0.0
21/09:30am 15.3 12.2 9.0 66 3.2 E 15 20 8 11 1027.2 1027.2 0.0
21/09:00am 13.5 10.7 8.6 72 2.4 E 13 17 7 9 1027.3 1027.3 0.0
21/08:30am 11.8 9.6 7.9 77 1.9 E 9 13 5 7 1027.4 1027.4 0.0
21/08:00am 10.3 8.1 7.7 84 1.2 ENE 9 13 5 7 1026.9 1026.9 0.0
21/07:30am 8.6 6.7 7.4 92 0.6 NE 7 7 4 4 1026.7 1026.7 0.0
21/07:00am 6.5 4.4 5.8 95 0.3 N 6 7 3 4 1026.5 1026.5 0.0
21/06:30am 5.7 2.8 4.8 94 0.4 N 9 11 5 6 1026.3 1026.3 0.0
21/06:00am 6.0 3.2 5.1 94 0.4 N 9 11 5 6 1026.1 1026.1 0.0
21/05:30am 5.8 2.9 4.9 94 0.4 N 9 11 5 6 1026.0 1026.0 0.0
21/05:00am 6.8 4.5 5.7 93 0.5 NNW 7 9 4 5 1026.0 1026.0 0.0
21/04:30am 7.0 4.4 5.9 93 0.5 NNW 9 13 5 7 1026.0 1026.0 0.0
21/04:00am 7.3 3.9 6.1 92 0.5 NNW 13 15 7 8 1026.2 1026.2 0.0
21/03:30am 7.3 3.9 5.9 91 0.6 NW 13 15 7 8 1026.1 1026.1 0.0
21/03:00am 7.7 4.0 6.3 91 0.6 NW 15 17 8 9 1026.2 1026.2 0.0
21/02:30am 7.9 4.6 6.4 90 0.7 NW 13 17 7 9 1026.3 1026.3 0.0
21/02:00am 8.0 4.7 6.5 90 0.7 NNW 13 15 7 8 1026.5 1026.5 0.0
21/01:30am 8.3 4.7 6.6 89 0.8 NNW 15 17 8 9 1026.8 1026.8 0.0
21/01:00am 8.6 5.3 6.6 87 0.9 NNW 13 15 7 8 1027.0 1027.0 0.0
21/12:30am 8.8 5.9 6.4 85 1.1 NNW 11 13 6 7 1027.0 1027.0 0.0
21/12:00am 10.7 8.9 7.2 79 1.7 SSW 6 6 3 3 1027.1 1027.1 0.0
 
Date/Time
EDT
Tmp

°C
App
Tmp
°C
Dew
Point
°C
Rel
Hum
%
Delta-T

°C
Wind Press
QNH
hPa
Press
MSL
hPa
Rain
since
9 am
mm
Dir
 
Spd
km/h
Gust
km/h
Spd
kts
Gust
kts
20/11:30pm 10.7 8.6 6.6 76 1.9 SSW 7 7 4 4 1027.2 1027.2 0.0
20/11:00pm 10.7 8.8 6.6 76 1.9 SSW 6 7 3 4 1027.3 1027.3 0.0
20/10:30pm 11.1 9.0 6.6 74 2.1 SSE 7 9 4 5 1027.3 1027.3 0.0
20/10:00pm 12.2 9.9 7.3 72 2.4 S 9 15 5 8 1027.4 1027.4 0.0
20/09:30pm 12.9 9.8 7.4 69 2.7 SSE 13 19 7 10 1027.3 1027.3 0.0
20/09:00pm 13.9 10.2 7.9 67 3.0 S 17 22 9 12 1027.3 1027.3 0.0
20/08:30pm 14.9 10.6 7.9 63 3.5 S 20 26 11 14 1027.0 1027.0 0.0
20/08:00pm 15.5 11.8 8.0 61 3.8 SSE 17 24 9 13 1026.7 1026.7 0.0
20/07:30pm 16.7 12.0 7.6 55 4.6 SSE 22 30 12 16 1026.6 1026.6 0.0
20/07:00pm 17.8 12.6 7.2 50 5.3 SSE 24 32 13 17 1026.4 1026.4 0.0
20/06:30pm 18.5 13.1 6.4 45 6.0 SSE 24 32 13 17 1026.4 1026.4 0.0
20/06:00pm 19.2 13.3 6.0 42 6.5 S 26 35 14 19 1026.5 1026.5 0.0
20/05:30pm 19.4 13.2 6.2 42 6.6 S 28 35 15 19 1026.6 1026.6 0.0
20/05:00pm 18.9 12.9 8.6 51 5.3 S 30 41 16 22 1026.6 1026.6 0.0
20/04:30pm 18.8 13.4 7.9 49 5.6 S 26 37 14 20 1026.8 1026.8 0.0
20/04:00pm 18.4 11.8 7.8 50 5.4 SSW 32 41 17 22 1026.8 1026.8 0.0
20/03:30pm 19.7 13.1 6.1 41 6.8 S 30 39 16 21 1027.1 1027.1 0.0
20/03:00pm 19.8 13.7 4.7 37 7.3 SSE 26 37 14 20 1027.3 1027.3 0.0
20/02:30pm 18.7 12.3 5.2 41 6.6 S 28 41 15 22 1027.7 1027.7 0.0
20/02:00pm 18.7 12.8 5.9 43 6.3 SSW 26 43 14 23 1028.0 1028.0 0.0
20/01:30pm 18.2 11.9 5.8 44 6.1 SSW 28 43 15 23 1028.5 1028.5 0.0
20/01:13pm 17.7 11.1 4.3 41 6.4 S 28 48 15 26 1028.3 1028.4 0.0
20/01:00pm 17.4 11.5 3.7 40 6.4 S 24 32 13 17 1028.5 1028.5 0.0
20/12:30pm 17.2 10.3 4.5 43 6.0 S 30 41 16 22 1029.0 1029.0 0.0
20/12:00pm 17.2 12.3 4.9 44 5.8 SSE 20 30 11 16 1029.4 1029.4 0.0
20/11:30am 16.1 11.2 3.9 44 5.7 SSE 19 30 10 16 1029.7 1029.7 0.0
20/11:00am 15.4 9.8 3.2 44 5.5 SSE 22 33 12 18 1029.9 1029.9 0.0
20/10:30am 14.4 7.5 2.3 44 5.4 SSE 28 37 15 20 1030.1 1030.1 0.0
20/10:00am 13.7 7.2 2.6 47 4.9 SE 26 35 14 19 1030.2 1030.2 0.0
20/09:30am 13.1 6.6 2.9 50 4.5 SSE 26 35 14 19 1030.5 1030.5 0.0
20/09:00am 12.3 5.5 3.3 54 4.0 SSE 28 39 15 21 1030.4 1030.4 0.0
20/08:30am 12.2 6.5 4.7 60 3.4 SE 24 35 13 19 1030.2 1030.2 0.0
20/08:00am 11.3 6.4 4.1 61 3.2 SE 19 26 10 14 1030.3 1030.3 0.0
20/07:30am 10.4 4.9 4.1 65 2.8 SE 22 32 12 17 1030.0 1030.0 0.0
20/07:00am 9.8 4.8 4.6 70 2.3 SE 20 30 11 16 1029.8 1029.8 0.0
20/06:30am 9.6 4.8 5.4 75 1.9 SE 20 30 11 16 1029.6 1029.6 0.0
20/06:00am 9.9 4.8 5.9 76 1.8 SE 22 30 12 16 1029.1 1029.1 0.0
20/05:30am 10.0 5.5 6.2 77 1.8 SSE 19 28 10 15 1029.1 1029.1 0.0
20/05:00am 10.5 5.1 6.5 76 1.9 SE 24 33 13 18 1028.9 1028.9 0.0
20/04:30am 11.4 7.0 7.5 77 1.9 SE 20 28 11 15 1028.7 1028.7 0.0
20/04:00am 11.6 6.2 7.9 78 1.8 SE 26 35 14 19 1028.3 1028.4 0.0
20/03:30am 11.5 6.6 8.4 81 1.5 SE 24 33 13 18 1028.7 1028.7 0.0
20/03:00am 11.4 6.4 7.9 79 1.7 SSE 24 35 13 19 1028.7 1028.7 0.0
20/02:30am 12.2 7.5 7.9 75 2.1 SSE 22 35 12 19 1028.8 1028.8 0.0
20/02:00am 12.3 8.2 8.0 75 2.1 SSE 19 26 10 14 1028.8 1028.8 0.0
20/01:30am 12.3 7.4 8.4 77 1.9 S 24 33 13 18 1028.9 1028.9 0.0
20/01:02am 12.2 7.3 8.5 78 1.8 S 24 35 13 19 1028.9 1028.9 0.0
20/01:00am 12.2 7.3 8.5 78 1.8 SSE 24 35 13 19 1028.9 1028.9 0.0
20/12:30am 12.2 6.7 9.2 82 1.5 S 28 37 15 20 1029.0 1029.0 0.0
20/12:00am 12.4 6.8 10.0 85 1.2 SSE 30 41 16 22 1028.7 1028.7 0.0
 
Date/Time
EDT
Tmp

°C
App
Tmp
°C
Dew
Point
°C
Rel
Hum
%
Delta-T

°C
Wind Press
QNH
hPa
Press
MSL
hPa
Rain
since
9 am
mm
Dir
 
Spd
km/h
Gust
km/h
Spd
kts
Gust
kts
19/11:47pm 12.6 8.2 10.5 87 1.1 S 24 33 13 18 1028.6 1028.6 0.0
19/11:42pm 12.6 8.3 10.7 88 1.0 S 24 33 13 18 1028.6 1028.6 0.0
19/11:30pm 12.4 7.3 10.6 89 0.9 S 28 41 15 22 1028.6 1028.6 0.0
19/11:28pm 12.4 6.9 10.6 89 0.9 S 30 41 16 22 1028.6 1028.6 0.0
19/11:00pm 13.8 9.9 10.8 82 1.6 S 22 30 12 16 1028.1 1028.2 0.0
19/10:30pm 14.0 9.2 10.4 79 1.9 S 26 33 14 18 1027.8 1027.8 0.0
19/10:00pm 14.1 9.8 10.9 81 1.7 S 24 33 13 18 1027.9 1027.9 0.0
19/09:30pm 14.2 9.6 11.0 81 1.7 S 26 37 14 20 1027.6 1027.6 0.0
19/09:00pm 14.4 10.6 11.0 80 1.8 S 22 32 12 17 1027.1 1027.1 0.0
19/08:30pm 14.5 11.1 11.3 81 1.7 S 20 30 11 16 1026.0 1026.0 0.0
19/08:00pm 14.5 10.4 11.5 82 1.6 S 24 32 13 17 1025.4 1025.4 0.0
19/07:30pm 14.6 10.2 11.6 82 1.6 S 26 35 14 19 1025.2 1025.2 0.0
19/07:00pm 14.7 9.9 11.5 81 1.7 S 28 35 15 19 1024.5 1024.5 0.0
19/06:30pm 15.1 9.9 11.7 80 1.8 S 30 41 16 22 1023.6 1023.6 0.0
19/06:09pm 15.1 9.2 11.3 78 2.0 SSW 33 52 18 28 1023.2 1023.2 0.0
19/06:07pm 15.4 9.6 11.4 77 2.2 SSW 33 52 18 28 1023.2 1023.2 0.0
19/06:00pm 15.4 9.8 11.6 78 2.0 SSW 32 44 17 24 1022.8 1022.8 0.0
19/05:31pm 15.4 9.7 11.8 79 2.0 S 33 54 18 29 1021.8 1021.8 0.0
19/05:30pm 15.4 9.7 11.8 79 2.0 S 33 50 18 27 1021.8 1021.8 0.0
19/05:00pm 15.6 9.6 12.2 80 1.9 S 35 50 19 27 1021.0 1021.0 0.0
19/04:30pm 17.1 11.1 12.0 72 2.8 SSW 35 46 19 25 1020.0 1020.0 0.0
19/04:15pm 18.7 13.3 12.2 66 3.6 SSW 32 41 17 22 1019.7 1019.7 0.0
19/04:00pm 23.8 19.4 10.5 43 7.4 SSW 24 39 13 21 1019.0 1019.0 0.0
19/03:30pm 27.2 21.2 7.1 28 10.7 N 28 44 15 24 1018.6 1018.6 0.0
19/03:00pm 28.4 22.4 8.7 29 10.8 N 30 44 16 24 1018.9 1018.9 0.0
19/02:30pm 27.4 20.7 7.3 28 10.7 N 32 44 17 24 1019.1 1019.1 0.0
19/02:00pm 25.2 19.4 9.5 37 8.6 N 30 43 16 23 1019.7 1019.7 0.0
19/01:40pm 24.8 18.8 8.7 36 8.7 N 30 48 16 26 1019.7 1019.7 0.0
19/01:30pm 24.4 18.7 8.4 36 8.6 N 28 37 15 20 1019.8 1019.8 0.0
19/01:00pm 23.8 18.8 8.2 37 8.3 N 24 33 13 18 1020.3 1020.3 0.0

Latest Capital City Observations: Canberra | Sydney | Melbourne | Brisbane | Adelaide | Perth | Hobart | Darwin

Other Formats:

Comma delimited format used in spreadsheet applications
http://www.bom.gov.au/fwo/IDV60901/IDV60901.95866.axf

JavaScript Object Notation format (JSON) in row-major order
http://www.bom.gov.au/fwo/IDV60901/IDV60901.95866.json